Location: Prosper
(33.2362°N, 96.8011°W)
Time: 09:25:50
(UTC+00:00)

CORIOLIS - Pass Details

Date: 03 December 2021
Orbit: 818 x 839 km, 98.7° (Epoch: 26 January)

Event Time Altitude Azimuth Distance (km) Brightness Sun altitude
Rises 12:42:28 0° 14° (NNE) 3,396 7.3 -7.0°
Reaches altitude 10° 12:44:51 10° 17° (NNE) 2,458 6.6 -6.5°
Maximum altitude 12:50:18 76° 102° (ESE) 865 4.5 -5.5°
Drops below altitude 10° 12:55:43 10° 188° (S) 2,437 6.8 -4.4°
Sets 12:58:03 0° 190° (S) 3,365 7.5 -4.0°
